Location: Martley
(52.2333°N, 2.3667°W)
Time: 15:47:54
(UTC+00:00)

Cosmos 1607 - Pass Details

Date: 11 December 2019
Orbit: 925 x 977 km, 65.0° (Epoch: 28 January)

Event Time Altitude Azimuth Distance (km) Brightness Sun altitude
Exits shadow 04:27:04 49° 27° (NNE) 1,192 4.5 -32.4°
Drops below altitude 10° 04:31:31 10° 42° (NE) 2,654 6.8 -31.8°
Sets 04:34:05 0° 44° (NE) 3,608 7.6 -31.4°
